Time,TemperatureF,DewpointF,PressureIn,WindDirection,WindDirectionDegrees,WindSpeedMPH,WindSpeedGustMPH,Humidity,HourlyPrecipIn,Conditions,Clouds,dailyrainin,SoftwareType,DateUTC
2013-04-21 00:01:00,32.0,21.2,30.53,NNE,23,0.0,0.0,64,0.00,,,0.00,WUHU216HW,2013-04-21 04:01:00,
2013-04-21 00:03:00,31.9,21.4,30.53,NNE,23,0.0,0.0,65,0.00,,,0.00,WUHU216HW,2013-04-21 04:03:00,
2013-04-21 00:08:00,31.7,21.6,30.53,NNE,23,0.0,0.0,66,0.00,,,0.00,WUHU216HW,2013-04-21 04:08:00,
2013-04-21 00:13:00,31.3,21.2,30.53,NNE,23,0.0,0.0,66,0.00,,,0.00,WUHU216HW,2013-04-21 04:13:00,
2013-04-21 00:18:00,31.0,20.9,30.53,NNE,23,0.0,0.0,66,0.00,,,0.00,WUHU216HW,2013-04-21 04:18:00,
2013-04-21 00:23:00,31.0,20.9,30.54,NE,45,0.0,0.0,66,0.00,,,0.00,WUHU216HW,2013-04-21 04:23:00,
2013-04-21 00:28:00,30.8,22.8,30.54,NE,45,0.0,0.0,72,0.00,,,0.00,WUHU216HW,2013-04-21 04:28:00,
2013-04-21 00:33:00,30.6,22.0,30.54,NE,45,0.0,0.0,70,0.00,,,0.00,WUHU216HW,2013-04-21 04:33:00,
2013-04-21 00:38:00,30.4,21.4,30.54,NE,45,0.0,0.0,69,0.00,,,0.00,WUHU216HW,2013-04-21 04:38:00,
2013-04-21 00:43:00,30.2,21.6,30.55,NE,45,0.0,0.0,70,0.00,,,0.00,WUHU216HW,2013-04-21 04:43:00,
2013-04-21 00:48:00,30.1,20.7,30.55,NE,45,0.0,0.0,68,0.00,,,0.00,WUHU216HW,2013-04-21 04:48:00,
2013-04-21 00:53:00,29.9,20.9,30.55,NE,45,0.0,0.0,69,0.00,,,0.00,WUHU216HW,2013-04-21 04:53:00,
2013-04-21 00:59:00,29.9,20.5,30.55,NE,45,0.0,0.0,68,0.00,,,0.00,WUHU216HW,2013-04-21 04:59:00,
2013-04-21 01:04:00,29.9,20.5,30.55,NE,45,0.0,0.0,68,0.00,,,0.00,WUHU216HW,2013-04-21 05:04:00,
2013-04-21 01:09:00,29.5,21.0,30.55,NE,45,0.0,0.0,70,0.00,,,0.00,WUHU216HW,2013-04-21 05:09:00,
2013-04-21 01:14:00,29.3,20.8,30.56,NE,45,0.0,0.0,70,0.00,,,0.00,WUHU216HW,2013-04-21 05:14:00,
2013-04-21 01:19:00,29.2,21.9,30.56,NE,45,0.0,0.0,74,0.00,,,0.00,WUHU216HW,2013-04-21 05:19:00,
2013-04-21 01:24:00,29.2,21.9,30.57,NE,45,0.0,0.0,74,0.00,,,0.00,WUHU216HW,2013-04-21 05:24:00,
2013-04-21 01:29:00,29.0,21.1,30.57,NE,45,0.0,0.0,72,0.00,,,0.00,WUHU216HW,2013-04-21 05:29:00,
2013-04-21 01:34:00,28.8,20.9,30.57,NE,45,0.0,0.0,72,0.00,,,0.00,WUHU216HW,2013-04-21 05:34:00,
2013-04-21 01:39:00,28.8,21.3,30.57,NE,45,0.0,0.0,73,0.00,,,0.00,WUHU216HW,2013-04-21 05:39:00,
2013-04-21 01:44:00,28.8,21.3,30.57,NE,45,0.0,0.0,73,0.00,,,0.00,WUHU216HW,2013-04-21 05:44:00,
2013-04-21 01:49:00,28.6,20.8,30.57,NE,45,0.0,0.0,72,0.00,,,0.00,WUHU216HW,2013-04-21 05:49:00,
2013-04-21 01:54:00,28.6,21.1,30.57,NE,45,0.0,0.0,73,0.00,,,0.00,WUHU216HW,2013-04-21 05:54:00,
2013-04-21 01:59:00,28.4,21.3,30.57,NE,45,0.0,0.0,74,0.00,,,0.00,WUHU216HW,2013-04-21 05:59:00,
2013-04-21 02:04:00,28.3,21.3,30.57,NE,45,0.0,0.0,75,0.00,,,0.00,WUHU216HW,2013-04-21 06:04:00,
2013-04-21 02:09:00,28.3,21.1,30.57,NE,45,0.0,0.0,74,0.00,,,0.00,WUHU216HW,2013-04-21 06:09:00,
2013-04-21 02:14:00,28.1,21.2,30.57,NE,45,0.0,0.0,75,0.00,,,0.00,WUHU216HW,2013-04-21 06:14:00,
2013-04-21 02:19:00,27.9,21.0,30.57,NE,45,0.0,0.0,75,0.00,,,0.00,WUHU216HW,2013-04-21 06:19:00,
2013-04-21 02:25:00,27.9,20.7,30.57,NE,45,0.0,0.0,74,0.00,,,0.00,WUHU216HW,2013-04-21 06:25:00,
2013-04-21 02:30:00,27.7,20.5,30.57,NE,45,0.0,0.0,74,0.00,,,0.00,WUHU216HW,2013-04-21 06:30:00,
2013-04-21 02:35:00,27.7,20.5,30.57,NE,45,0.0,0.0,74,0.00,,,0.00,WUHU216HW,2013-04-21 06:35:00,
2013-04-21 02:40:00,27.7,20.5,30.58,NE,45,0.0,0.0,74,0.00,,,0.00,WUHU216HW,2013-04-21 06:40:00,
2013-04-21 02:45:00,27.5,20.6,30.58,NE,45,0.0,0.0,75,0.00,,,0.00,WUHU216HW,2013-04-21 06:45:00,
2013-04-21 02:50:00,27.5,20.4,30.58,NE,45,0.0,0.0,74,0.00,,,0.00,WUHU216HW,2013-04-21 06:50:00,
2013-04-21 02:55:00,27.2,20.3,30.58,NE,45,0.0,0.0,75,0.00,,,0.00,WUHU216HW,2013-04-21 06:55:00,
2013-04-21 03:00:00,27.0,19.8,30.58,NE,45,0.0,0.0,74,0.00,,,0.00,WUHU216HW,2013-04-21 07:00:00,
2013-04-21 03:05:00,27.0,20.3,30.58,NE,45,0.0,0.0,76,0.00,,,0.00,WUHU216HW,2013-04-21 07:05:00,
2013-04-21 03:10:00,26.8,20.8,30.58,NE,45,0.0,0.0,78,0.00,,,0.00,WUHU216HW,2013-04-21 07:10:00,
2013-04-21 03:15:00,26.8,21.7,30.58,NE,45,0.0,0.0,81,0.00,,,0.00,WUHU216HW,2013-04-21 07:15:00,
2013-04-21 03:20:00,26.6,21.2,30.58,NE,45,0.0,0.0,80,0.00,,,0.00,WUHU216HW,2013-04-21 07:20:00,
2013-04-21 03:25:00,26.6,20.6,30.58,NE,45,0.0,0.0,78,0.00,,,0.00,WUHU216HW,2013-04-21 07:25:00,
2013-04-21 03:30:00,26.6,21.0,30.58,NE,45,0.0,0.0,79,0.00,,,0.00,WUHU216HW,2013-04-21 07:30:00,
2013-04-21 03:36:00,26.6,21.2,30.58,NE,45,0.0,0.0,80,0.00,,,0.00,WUHU216HW,2013-04-21 07:36:00,
2013-04-21 03:41:00,26.5,21.7,30.58,NE,45,0.0,0.0,82,0.00,,,0.00,WUHU216HW,2013-04-21 07:41:00,
2013-04-21 03:46:00,26.3,21.5,30.58,NE,45,0.0,0.0,82,0.00,,,0.00,WUHU216HW,2013-04-21 07:46:00,
2013-04-21 03:51:00,26.3,20.9,30.59,NE,45,0.0,0.0,80,0.00,,,0.00,WUHU216HW,2013-04-21 07:51:00,
2013-04-21 03:56:00,26.3,20.6,30.59,NE,45,0.0,0.0,79,0.00,,,0.00,WUHU216HW,2013-04-21 07:56:00,
2013-04-21 04:01:00,26.3,20.6,30.59,NE,45,0.0,0.0,79,0.00,,,0.00,WUHU216HW,2013-04-21 08:01:00,
2013-04-21 04:06:00,26.3,20.6,30.59,NE,45,0.0,0.0,79,0.00,,,0.00,WUHU216HW,2013-04-21 08:06:00,
2013-04-21 04:11:00,26.3,20.4,30.60,NE,45,0.0,0.0,78,0.00,,,0.00,WUHU216HW,2013-04-21 08:11:00,
2013-04-21 04:16:00,26.3,20.4,30.59,NE,45,0.0,0.0,78,0.00,,,0.00,WUHU216HW,2013-04-21 08:16:00,
2013-04-21 04:21:00,26.3,20.4,30.60,NE,45,0.0,0.0,78,0.00,,,0.00,WUHU216HW,2013-04-21 08:21:00,
2013-04-21 04:26:00,26.3,21.3,30.60,NE,45,0.0,0.0,81,0.00,,,0.00,WUHU216HW,2013-04-21 08:26:00,
2013-04-21 04:31:00,26.1,21.1,30.60,NE,45,0.0,0.0,81,0.00,,,0.00,WUHU216HW,2013-04-21 08:31:00,
2013-04-21 04:36:00,25.9,20.6,30.60,NE,45,0.0,0.0,80,0.00,,,0.00,WUHU216HW,2013-04-21 08:36:00,
2013-04-21 04:41:00,25.7,20.4,30.60,NE,45,0.0,0.0,80,0.00,,,0.00,WUHU216HW,2013-04-21 08:41:00,
2013-04-21 04:46:00,25.6,20.5,30.60,NE,45,0.0,0.0,81,0.00,,,0.00,WUHU216HW,2013-04-21 08:46:00,
2013-04-21 04:51:00,25.6,20.8,30.60,NE,45,0.0,0.0,82,0.00,,,0.00,WUHU216HW,2013-04-21 08:51:00,
2013-04-21 04:56:00,25.4,20.7,30.60,NE,45,0.0,0.0,82,0.00,,,0.00,WUHU216HW,2013-04-21 08:56:00,
2013-04-21 05:02:00,25.2,20.5,30.60,NE,45,0.0,0.0,82,0.00,,,0.00,WUHU216HW,2013-04-21 09:02:00,
2013-04-21 05:07:00,25.2,20.3,30.61,NE,45,0.0,0.0,81,0.00,,,0.00,WUHU216HW,2013-04-21 09:07:00,
2013-04-21 05:12:00,25.2,20.0,30.60,NE,45,0.0,0.0,80,0.00,,,0.00,WUHU216HW,2013-04-21 09:12:00,
2013-04-21 05:17:00,25.2,20.0,30.61,NE,45,0.0,0.0,80,0.00,,,0.00,WUHU216HW,2013-04-21 09:17:00,
2013-04-21 05:22:00,25.2,20.3,30.61,NE,45,0.0,0.0,81,0.00,,,0.00,WUHU216HW,2013-04-21 09:22:00,
2013-04-21 05:27:00,25.2,20.0,30.61,NE,45,0.0,0.0,80,0.00,,,0.00,WUHU216HW,2013-04-21 09:27:00,
2013-04-21 05:32:00,25.2,20.0,30.62,NE,45,0.0,0.0,80,0.00,,,0.00,WUHU216HW,2013-04-21 09:32:00,
2013-04-21 05:37:00,25.0,20.4,30.62,NE,45,0.0,0.0,82,0.00,,,0.00,WUHU216HW,2013-04-21 09:37:00,
2013-04-21 05:42:00,24.8,20.2,30.62,NE,45,0.0,0.0,82,0.00,,,0.00,WUHU216HW,2013-04-21 09:42:00,
2013-04-21 05:47:00,24.8,19.9,30.62,NE,45,0.0,0.0,81,0.00,,,0.00,WUHU216HW,2013-04-21 09:47:00,
2013-04-21 05:52:00,24.8,20.7,30.62,NE,45,0.0,0.0,84,0.00,,,0.00,WUHU216HW,2013-04-21 09:52:00,
2013-04-21 05:57:00,24.7,20.8,30.62,NE,45,0.0,0.0,85,0.00,,,0.00,WUHU216HW,2013-04-21 09:57:00,
2013-04-21 06:02:00,24.7,20.0,30.63,NE,45,0.0,0.0,82,0.00,,,0.00,WUHU216HW,2013-04-21 10:02:00,
2013-04-21 06:07:00,24.7,20.0,30.63,NE,45,0.0,0.0,82,0.00,,,0.00,WUHU216HW,2013-04-21 10:07:00,
2013-04-21 06:12:00,24.5,19.8,30.63,NE,45,0.0,0.0,82,0.00,,,0.00,WUHU216HW,2013-04-21 10:12:00,
2013-04-21 06:17:00,24.1,19.4,30.63,NE,45,0.0,0.0,82,0.00,,,0.00,WUHU216HW,2013-04-21 10:17:00,
2013-04-21 06:22:00,24.1,19.4,30.64,NE,45,0.0,0.0,82,0.00,,,0.00,WUHU216HW,2013-04-21 10:22:00,
2013-04-21 06:28:00,24.1,19.4,30.64,NE,45,0.0,0.0,82,0.00,,,0.00,WUHU216HW,2013-04-21 10:28:00,
2013-04-21 06:33:00,23.9,19.3,30.65,NE,45,0.0,0.0,82,0.00,,,0.00,WUHU216HW,2013-04-21 10:33:00,
2013-04-21 06:38:00,23.8,19.1,30.64,NE,45,0.0,0.0,82,0.00,,,0.00,WUHU216HW,2013-04-21 10:38:00,
2013-04-21 06:43:00,23.9,20.1,30.65,NE,45,0.0,0.0,85,0.00,,,0.00,WUHU216HW,2013-04-21 10:43:00,
2013-04-21 06:48:00,24.1,20.8,30.65,NE,45,0.0,0.0,87,0.00,,,0.00,WUHU216HW,2013-04-21 10:48:00,
2013-04-21 06:53:00,24.1,20.8,30.66,NE,45,0.0,0.0,87,0.00,,,0.00,WUHU216HW,2013-04-21 10:53:00,
2013-04-21 06:58:00,24.1,20.8,30.66,NE,45,0.0,0.0,87,0.00,,,0.00,WUHU216HW,2013-04-21 10:58:00,
2013-04-21 07:03:00,24.1,20.8,30.66,NE,45,0.0,0.0,87,0.00,,,0.00,WUHU216HW,2013-04-21 11:03:00,
2013-04-21 07:08:00,24.3,21.0,30.66,NE,45,0.0,0.0,87,0.00,,,0.00,WUHU216HW,2013-04-21 11:08:00,
2013-04-21 07:13:00,24.5,21.2,30.67,NE,45,0.0,0.0,87,0.00,,,0.00,WUHU216HW,2013-04-21 11:13:00,
2013-04-21 07:18:00,24.5,21.4,30.67,NE,45,0.0,0.0,88,0.00,,,0.00,WUHU216HW,2013-04-21 11:18:00,
2013-04-21 07:24:00,24.7,21.3,30.68,NE,45,0.0,0.0,87,0.00,,,0.00,WUHU216HW,2013-04-21 11:24:00,
2013-04-21 07:29:00,24.8,21.5,30.68,NE,45,0.0,0.0,87,0.00,,,0.00,WUHU216HW,2013-04-21 11:29:00,
2013-04-21 07:34:00,25.4,22.1,30.68,NE,45,0.0,0.0,87,0.00,,,0.00,WUHU216HW,2013-04-21 11:34:00,
2013-04-21 07:39:00,25.6,22.0,30.68,NE,45,0.0,0.0,86,0.00,,,0.00,WUHU216HW,2013-04-21 11:39:00,
2013-04-21 07:44:00,26.1,22.1,30.68,SW,225,0.0,0.8,85,0.00,,,0.00,WUHU216HW,2013-04-21 11:44:00,
2013-04-21 07:49:00,26.3,22.3,30.68,SW,225,0.0,0.8,85,0.00,,,0.00,WUHU216HW,2013-04-21 11:49:00,
2013-04-21 07:54:00,26.8,22.6,30.68,SW,225,0.0,0.0,84,0.00,,,0.00,WUHU216HW,2013-04-21 11:54:00,
2013-04-21 07:59:00,27.4,23.1,30.68,SSE,158,0.4,0.4,84,0.00,,,0.00,WUHU216HW,2013-04-21 11:59:00,
2013-04-21 08:04:00,27.7,23.2,30.68,WNW,293,0.0,0.4,83,0.00,,,0.00,WUHU216HW,2013-04-21 12:04:00,
2013-04-21 08:09:00,28.3,23.8,30.69,ESE,113,0.4,0.4,83,0.00,,,0.00,WUHU216HW,2013-04-21 12:09:00,
2013-04-21 08:14:00,28.6,24.1,30.69,ESE,113,0.0,0.4,83,0.00,,,0.00,WUHU216HW,2013-04-21 12:14:00,
2013-04-21 08:19:00,29.0,24.5,30.69,ESE,113,0.8,0.8,83,0.00,,,0.00,WUHU216HW,2013-04-21 12:19:00,
2013-04-21 08:24:00,29.3,24.5,30.69,SW,225,0.0,0.8,82,0.00,,,0.00,WUHU216HW,2013-04-21 12:24:00,
2013-04-21 08:30:00,29.7,24.8,30.69,SSE,158,0.0,2.6,82,0.00,,,0.00,WUHU216HW,2013-04-21 12:30:00,
2013-04-21 08:35:00,30.2,25.1,30.70,WSW,248,1.4,2.6,81,0.00,,,0.00,WUHU216HW,2013-04-21 12:35:00,
2013-04-21 08:40:00,30.8,25.7,30.70,SE,135,2.2,3.2,81,0.00,,,0.00,WUHU216HW,2013-04-21 12:40:00,
2013-04-21 08:45:00,31.3,25.6,30.70,ESE,113,0.0,3.2,79,0.00,,,0.00,WUHU216HW,2013-04-21 12:45:00,
2013-04-21 08:50:00,31.9,25.8,30.70,ESE,113,2.2,3.2,78,0.00,,,0.00,WUHU216HW,2013-04-21 12:50:00,
2013-04-21 08:55:00,32.4,26.3,30.70,WSW,248,1.8,2.2,78,0.00,,,0.00,WUHU216HW,2013-04-21 12:55:00,
2013-04-21 09:00:00,32.8,26.0,30.70,ESE,113,1.8,6.8,76,0.00,,,0.00,WUHU216HW,2013-04-21 13:00:00,
2013-04-21 09:05:00,33.3,25.5,30.70,East,90,0.0,6.8,73,0.00,,,0.00,WUHU216HW,2013-04-21 13:05:00,
2013-04-21 09:10:00,33.8,26.0,30.70,NE,45,0.0,4.4,73,0.00,,,0.00,WUHU216HW,2013-04-21 13:10:00,
2013-04-21 09:16:00,34.2,26.0,30.70,North,0,1.8,3.6,72,0.00,,,0.00,WUHU216HW,2013-04-21 13:16:00,
2013-04-21 09:21:00,34.7,26.6,30.71,SW,225,0.8,3.6,72,0.00,,,0.00,WUHU216HW,2013-04-21 13:21:00,
2013-04-21 09:26:00,35.1,26.9,30.70,ESE,113,2.6,3.6,72,0.00,,,0.00,WUHU216HW,2013-04-21 13:26:00,
2013-04-21 09:31:00,35.6,26.8,30.71,NE,45,2.2,3.6,70,0.00,,,0.00,WUHU216HW,2013-04-21 13:31:00,
2013-04-21 09:36:00,36.0,27.2,30.71,SE,135,0.4,3.6,70,0.00,,,0.00,WUHU216HW,2013-04-21 13:36:00,
2013-04-21 09:41:00,36.4,26.5,30.70,ESE,113,2.2,2.2,67,0.00,,,0.00,WUHU216HW,2013-04-21 13:41:00,
2013-04-21 09:46:00,36.7,26.5,30.71,WNW,293,0.8,4.0,66,0.00,,,0.00,WUHU216HW,2013-04-21 13:46:00,
2013-04-21 09:51:00,36.9,25.5,30.71,NNW,338,0.4,4.0,63,0.00,,,0.00,WUHU216HW,2013-04-21 13:51:00,
2013-04-21 09:56:00,37.1,24.9,30.71,SE,135,2.6,2.6,61,0.00,,,0.00,WUHU216HW,2013-04-21 13:56:00,
2013-04-21 10:01:00,37.4,25.6,30.71,East,90,8.0,8.0,62,0.00,,,0.00,WUHU216HW,2013-04-21 14:01:00,
2013-04-21 10:06:00,37.8,24.3,30.71,West,270,0.4,8.0,58,0.00,,,0.00,WUHU216HW,2013-04-21 14:06:00,
2013-04-21 10:11:00,38.0,23.1,30.72,ESE,113,5.0,5.0,55,0.00,,,0.00,WUHU216HW,2013-04-21 14:11:00,
2013-04-21 10:16:00,38.3,23.5,30.72,East,90,3.6,5.0,55,0.00,,,0.00,WUHU216HW,2013-04-21 14:16:00,
2013-04-21 10:21:00,38.7,23.4,30.72,SSW,203,2.6,5.8,54,0.00,,,0.00,WUHU216HW,2013-04-21 14:21:00,
2013-04-21 10:26:00,39.1,24.1,30.72,West,270,2.2,5.8,55,0.00,,,0.00,WUHU216HW,2013-04-21 14:26:00,
2013-04-21 10:31:00,39.2,23.4,30.72,South,180,3.6,3.6,53,0.00,,,0.00,WUHU216HW,2013-04-21 14:31:00,
2013-04-21 10:37:00,39.4,23.1,30.72,NNE,23,0.0,4.4,52,0.00,,,0.00,WUHU216HW,2013-04-21 14:37:00,
2013-04-21 10:42:00,39.4,22.3,30.72,NNW,338,4.4,5.0,50,0.00,,,0.00,WUHU216HW,2013-04-21 14:42:00,
2013-04-21 10:47:00,39.6,22.9,30.72,SW,225,2.6,5.0,51,0.00,,,0.00,WUHU216HW,2013-04-21 14:47:00,
2013-04-21 10:52:00,40.0,23.7,30.72,SSE,158,3.6,4.0,52,0.00,,,0.00,WUHU216HW,2013-04-21 14:52:00,
2013-04-21 10:57:00,40.0,21.8,30.72,NW,315,5.0,5.4,48,0.00,,,0.00,WUHU216HW,2013-04-21 14:57:00,
2013-04-21 11:02:00,40.1,23.4,30.72,NNW,338,2.2,5.8,51,0.00,,,0.00,WUHU216HW,2013-04-21 15:02:00,
2013-04-21 11:07:00,40.5,20.7,30.72,NW,315,1.8,5.8,45,0.00,,,0.00,WUHU216HW,2013-04-21 15:07:00,
2013-04-21 11:12:00,40.3,21.5,30.72,WSW,248,4.0,9.4,47,0.00,,,0.00,WUHU216HW,2013-04-21 15:12:00,
2013-04-21 11:17:00,40.3,21.5,30.72,WNW,293,2.6,9.4,47,0.00,,,0.00,WUHU216HW,2013-04-21 15:17:00,
2013-04-21 11:22:00,41.0,22.7,30.72,ESE,113,0.8,5.0,48,0.00,,,0.00,WUHU216HW,2013-04-21 15:22:00,
2013-04-21 11:27:00,41.6,23.2,30.72,WNW,293,2.2,5.0,48,0.00,,,0.00,WUHU216HW,2013-04-21 15:27:00,
2013-04-21 11:33:00,41.6,21.2,30.72,WNW,293,2.6,3.6,44,0.00,,,0.00,WUHU216HW,2013-04-21 15:33:00,
2013-04-21 11:38:00,41.6,22.2,30.71,ENE,68,0.8,3.6,46,0.00,,,0.00,WUHU216HW,2013-04-21 15:38:00,
2013-04-21 11:43:00,41.8,21.9,30.72,SSW,203,0.8,3.6,45,0.00,,,0.00,WUHU216HW,2013-04-21 15:43:00,
2013-04-21 11:48:00,42.5,23.6,30.72,SE,135,5.0,6.8,47,0.00,,,0.00,WUHU216HW,2013-04-21 15:48:00,
2013-04-21 11:53:00,43.0,24.7,30.71,SSE,158,4.0,8.6,48,0.00,,,0.00,WUHU216HW,2013-04-21 15:53:00,
2013-04-21 11:58:00,43.4,23.3,30.71,ESE,113,3.2,8.6,45,0.00,,,0.00,WUHU216HW,2013-04-21 15:58:00,
2013-04-21 12:03:00,43.7,23.1,30.71,East,90,5.0,5.4,44,0.00,,,0.00,WUHU216HW,2013-04-21 16:03:00,
2013-04-21 12:08:00,44.3,24.1,30.71,NNE,23,1.8,5.4,45,0.00,,,0.00,WUHU216HW,2013-04-21 16:08:00,
2013-04-21 12:13:00,44.8,23.1,30.71,West,270,5.8,6.2,42,0.00,,,0.00,WUHU216HW,2013-04-21 16:13:00,
2013-04-21 12:18:00,44.5,23.2,30.71,NW,315,2.2,6.2,43,0.00,,,0.00,WUHU216HW,2013-04-21 16:18:00,
2013-04-21 12:23:00,44.3,22.5,30.71,ENE,68,3.6,5.4,42,0.00,,,0.00,WUHU216HW,2013-04-21 16:23:00,
2013-04-21 12:28:00,44.3,23.0,30.70,ESE,113,4.0,5.4,43,0.00,,,0.00,WUHU216HW,2013-04-21 16:28:00,
2013-04-21 12:33:00,44.5,22.7,30.70,WSW,248,7.6,7.6,42,0.00,,,0.00,WUHU216HW,2013-04-21 16:33:00,
2013-04-21 12:38:00,45.4,24.6,30.70,SE,135,0.8,7.6,44,0.00,,,0.00,WUHU216HW,2013-04-21 16:38:00,
2013-04-21 12:43:00,46.1,22.4,30.70,WNW,293,1.4,3.6,39,0.00,,,0.00,WUHU216HW,2013-04-21 16:43:00,
2013-04-21 12:49:00,46.3,24.3,30.69,SSE,158,3.2,5.0,42,0.00,,,0.00,WUHU216HW,2013-04-21 16:49:00,
2013-04-21 12:54:00,46.3,22.6,30.69,NNE,23,4.0,5.0,39,0.00,,,0.00,WUHU216HW,2013-04-21 16:54:00,
2013-04-21 12:59:00,46.1,22.4,30.69,NW,315,2.2,4.0,39,0.00,,,0.00,WUHU216HW,2013-04-21 16:59:00,
2013-04-21 13:04:00,46.3,21.9,30.68,NNW,338,2.2,5.0,38,0.00,,,0.00,WUHU216HW,2013-04-21 17:04:00,
2013-04-21 13:09:00,45.9,21.6,30.68,NNW,338,3.2,9.4,38,0.00,,,0.00,WUHU216HW,2013-04-21 17:09:00,
2013-04-21 13:14:00,45.9,24.6,30.68,ENE,68,2.2,9.4,43,0.00,,,0.00,WUHU216HW,2013-04-21 17:14:00,
2013-04-21 13:19:00,46.4,25.0,30.68,East,90,3.2,5.0,43,0.00,,,0.00,WUHU216HW,2013-04-21 17:19:00,
2013-04-21 13:24:00,47.2,24.0,30.68,WSW,248,7.6,7.6,40,0.00,,,0.00,WUHU216HW,2013-04-21 17:24:00,
2013-04-21 13:30:00,47.2,22.7,30.68,NW,315,6.2,7.6,38,0.00,,,0.00,WUHU216HW,2013-04-21 17:30:00,
2013-04-21 13:35:00,47.2,22.7,30.67,West,270,4.4,6.2,38,0.00,,,0.00,WUHU216HW,2013-04-21 17:35:00,
2013-04-21 13:40:00,47.3,22.9,30.67,NW,315,8.0,8.0,38,0.00,,,0.00,WUHU216HW,2013-04-21 17:40:00,
2013-04-21 13:45:00,47.9,24.7,30.67,ESE,113,6.2,8.0,40,0.00,,,0.00,WUHU216HW,2013-04-21 17:45:00,
2013-04-21 13:50:00,49.0,24.3,30.67,ESE,113,6.8,6.8,38,0.00,,,0.00,WUHU216HW,2013-04-21 17:50:00,
2013-04-21 13:55:00,49.3,24.7,30.67,ENE,68,4.4,6.8,38,0.00,,,0.00,WUHU216HW,2013-04-21 17:55:00,
2013-04-21 14:00:00,49.0,21.6,30.67,North,0,3.6,6.8,34,0.00,,,0.00,WUHU216HW,2013-04-21 18:00:00,
2013-04-21 14:05:00,48.2,22.3,30.66,SE,135,5.0,5.0,36,0.00,,,0.00,WUHU216HW,2013-04-21 18:05:00,
2013-04-21 14:10:00,49.0,24.3,30.66,WSW,248,0.8,5.0,38,0.00,,,0.00,WUHU216HW,2013-04-21 18:10:00,
2013-04-21 14:15:00,49.9,25.1,30.66,SSE,158,7.2,7.2,38,0.00,,,0.00,WUHU216HW,2013-04-21 18:15:00,
2013-04-21 14:21:00,50.6,24.4,30.66,SSW,203,3.6,7.2,36,0.00,,,0.00,WUHU216HW,2013-04-21 18:21:00,
2013-04-21 14:25:00,50.4,22.9,30.65,NNW,338,4.0,4.4,34,0.00,,,0.00,WUHU216HW,2013-04-21 18:25:00,
2013-04-21 14:31:00,49.7,23.6,30.65,WSW,248,3.2,5.0,36,0.00,,,0.00,WUHU216HW,2013-04-21 18:31:00,
2013-04-21 14:36:00,50.0,24.6,30.65,WSW,248,0.0,5.0,37,0.00,,,0.00,WUHU216HW,2013-04-21 18:36:00,
2013-04-21 14:41:00,49.9,23.8,30.65,WSW,248,2.6,7.2,36,0.00,,,0.00,WUHU216HW,2013-04-21 18:41:00,
2013-04-21 14:46:00,50.8,24.6,30.64,East,90,5.0,7.2,36,0.00,,,0.00,WUHU216HW,2013-04-21 18:46:00,
2013-04-21 14:51:00,51.5,25.9,30.64,SE,135,3.6,6.8,37,0.00,,,0.00,WUHU216HW,2013-04-21 18:51:00,
2013-04-21 14:56:00,51.8,24.1,30.64,South,180,0.8,4.4,34,0.00,,,0.00,WUHU216HW,2013-04-21 18:56:00,
2013-04-21 15:01:00,51.3,25.0,30.63,SW,225,2.2,5.4,36,0.00,,,0.00,WUHU216HW,2013-04-21 19:01:00,
2013-04-21 15:06:00,51.8,25.6,30.64,ESE,113,4.0,5.4,36,0.00,,,0.00,WUHU216HW,2013-04-21 19:06:00,
2013-04-21 15:11:00,52.0,25.0,30.63,ENE,68,3.6,7.6,35,0.00,,,0.00,WUHU216HW,2013-04-21 19:11:00,
2013-04-21 15:16:00,52.2,24.5,30.63,ESE,113,3.6,7.6,34,0.00,,,0.00,WUHU216HW,2013-04-21 19:16:00,
2013-04-21 15:21:00,52.2,23.8,30.63,SE,135,5.0,7.2,33,0.00,,,0.00,WUHU216HW,2013-04-21 19:21:00,
2013-04-21 15:27:00,52.7,24.3,30.63,SW,225,6.8,6.8,33,0.00,,,0.00,WUHU216HW,2013-04-21 19:27:00,
2013-04-21 15:32:00,53.3,25.5,30.63,ESE,113,2.2,6.8,34,0.00,,,0.00,WUHU216HW,2013-04-21 19:32:00,
2013-04-21 15:37:00,54.0,26.1,30.63,East,90,5.0,6.8,34,0.00,,,0.00,WUHU216HW,2013-04-21 19:37:00,
2013-04-21 15:42:00,54.2,24.1,30.62,West,270,0.8,6.8,31,0.00,,,0.00,WUHU216HW,2013-04-21 19:42:00,
2013-04-21 15:47:00,53.6,24.4,30.62,SW,225,2.6,3.2,32,0.00,,,0.00,WUHU216HW,2013-04-21 19:47:00,
2013-04-21 15:52:00,53.3,24.1,30.62,ENE,68,2.2,4.4,32,0.00,,,0.00,WUHU216HW,2013-04-21 19:52:00,
2013-04-21 15:57:00,54.0,27.5,30.61,ESE,113,8.6,8.6,36,0.00,,,0.00,WUHU216HW,2013-04-21 19:57:00,
2013-04-21 16:02:00,54.7,26.0,30.61,SE,135,5.0,8.6,33,0.00,,,0.00,WUHU216HW,2013-04-21 20:02:00,
2013-04-21 16:07:00,54.7,26.6,30.60,South,180,4.4,6.8,34,0.00,,,0.00,WUHU216HW,2013-04-21 20:07:00,
2013-04-21 16:12:00,55.1,26.3,30.60,SSW,203,8.0,8.0,33,0.00,,,0.00,WUHU216HW,2013-04-21 20:12:00,
2013-04-21 16:17:00,55.8,27.6,30.60,SE,135,6.2,8.0,34,0.00,,,0.00,WUHU216HW,2013-04-21 20:17:00,
2013-04-21 16:22:00,55.8,25.5,30.60,WNW,293,2.2,6.8,31,0.00,,,0.00,WUHU216HW,2013-04-21 20:22:00,
2013-04-21 16:27:00,54.7,25.3,30.60,SE,135,8.6,9.4,32,0.00,,,0.00,WUHU216HW,2013-04-21 20:27:00,
2013-04-21 16:32:00,54.9,26.1,30.60,ESE,113,3.6,9.4,33,0.00,,,0.00,WUHU216HW,2013-04-21 20:32:00,
2013-04-21 16:37:00,54.7,25.3,30.60,WSW,248,2.6,6.8,32,0.00,,,0.00,WUHU216HW,2013-04-21 20:37:00,
2013-04-21 16:42:00,53.6,23.8,30.60,ESE,113,5.0,5.0,31,0.00,,,0.00,WUHU216HW,2013-04-21 20:42:00,
2013-04-21 16:47:00,54.2,24.8,30.60,ENE,68,4.4,5.0,32,0.00,,,0.00,WUHU216HW,2013-04-21 20:47:00,
2013-04-21 16:52:00,53.8,24.6,30.60,SW,225,2.6,7.6,32,0.00,,,0.00,WUHU216HW,2013-04-21 20:52:00,
2013-04-21 16:57:00,54.0,24.7,30.59,East,90,2.2,7.6,32,0.00,,,0.00,WUHU216HW,2013-04-21 20:57:00,
2013-04-21 17:02:00,54.5,25.1,30.59,NE,45,1.8,5.0,32,0.00,,,0.00,WUHU216HW,2013-04-21 21:02:00,
2013-04-21 17:07:00,54.5,25.1,30.60,ESE,113,3.6,5.0,32,0.00,,,0.00,WUHU216HW,2013-04-21 21:07:00,
2013-04-21 17:12:00,54.7,24.0,30.60,West,270,5.0,5.0,30,0.00,,,0.00,WUHU216HW,2013-04-21 21:12:00,
2013-04-21 17:17:00,54.2,24.1,30.59,SE,135,1.8,5.0,31,0.00,,,0.00,WUHU216HW,2013-04-21 21:17:00,
2013-04-21 17:23:00,54.4,25.0,30.59,SE,135,5.4,5.4,32,0.00,,,0.00,WUHU216HW,2013-04-21 21:23:00,
2013-04-21 17:28:00,55.1,25.6,30.59,ESE,113,3.6,8.0,32,0.00,,,0.00,WUHU216HW,2013-04-21 21:28:00,
2013-04-21 17:33:00,54.7,24.6,30.59,SE,135,7.6,8.0,31,0.00,,,0.00,WUHU216HW,2013-04-21 21:33:00,
2013-04-21 17:38:00,55.6,26.7,30.59,NNE,23,0.8,7.6,33,0.00,,,0.00,WUHU216HW,2013-04-21 21:38:00,
2013-04-21 17:43:00,56.2,26.6,30.59,SE,135,0.0,6.2,32,0.00,,,0.00,WUHU216HW,2013-04-21 21:43:00,
2013-04-21 17:48:00,56.0,23.0,30.59,ENE,68,3.2,6.8,28,0.00,,,0.00,WUHU216HW,2013-04-21 21:48:00,
2013-04-21 17:53:00,55.8,25.5,30.59,ESE,113,5.0,5.0,31,0.00,,,0.00,WUHU216HW,2013-04-21 21:53:00,
2013-04-21 17:58:00,56.2,25.1,30.59,North,0,0.8,5.0,30,0.00,,,0.00,WUHU216HW,2013-04-21 21:58:00,
2013-04-21 18:03:00,57.2,25.1,30.59,ENE,68,5.0,5.4,29,0.00,,,0.00,WUHU216HW,2013-04-21 22:03:00,
2013-04-21 18:08:00,58.0,24.9,30.59,East,90,0.8,6.8,28,0.00,,,0.00,WUHU216HW,2013-04-21 22:08:00,
2013-04-21 18:13:00,57.8,25.7,30.59,East,90,4.0,6.8,29,0.00,,,0.00,WUHU216HW,2013-04-21 22:13:00,
2013-04-21 18:18:00,57.8,26.6,30.59,ESE,113,6.2,6.2,30,0.00,,,0.00,WUHU216HW,2013-04-21 22:18:00,
2013-04-21 18:23:00,57.4,25.3,30.59,ENE,68,0.8,6.2,29,0.00,,,0.00,WUHU216HW,2013-04-21 22:23:00,
2013-04-21 18:28:00,55.8,23.9,30.59,ENE,68,1.4,3.6,29,0.00,,,0.00,WUHU216HW,2013-04-21 22:28:00,
2013-04-21 18:33:00,55.3,24.3,30.59,East,90,2.2,3.6,30,0.00,,,0.00,WUHU216HW,2013-04-21 22:33:00,
2013-04-21 18:39:00,55.8,24.9,30.59,ESE,113,2.2,3.6,30,0.00,,,0.00,WUHU216HW,2013-04-21 22:39:00,
2013-04-21 18:44:00,56.3,25.3,30.59,WSW,248,0.8,2.6,30,0.00,,,0.00,WUHU216HW,2013-04-21 22:44:00,
2013-04-21 18:49:00,55.8,23.9,30.59,ENE,68,1.8,3.6,29,0.00,,,0.00,WUHU216HW,2013-04-21 22:49:00,
2013-04-21 18:54:00,55.6,23.7,30.59,East,90,3.2,5.0,29,0.00,,,0.00,WUHU216HW,2013-04-21 22:54:00,
2013-04-21 18:59:00,55.1,24.2,30.59,NNE,23,0.0,5.0,30,0.00,,,0.00,WUHU216HW,2013-04-21 22:59:00,
2013-04-21 19:04:00,55.6,23.7,30.59,ESE,113,0.8,7.2,29,0.00,,,0.00,WUHU216HW,2013-04-21 23:04:00,
2013-04-21 19:09:00,55.6,24.7,30.59,ENE,68,2.2,7.2,30,0.00,,,0.00,WUHU216HW,2013-04-21 23:09:00,
2013-04-21 19:14:00,55.6,24.7,30.58,ENE,68,2.6,5.0,30,0.00,,,0.00,WUHU216HW,2013-04-21 23:14:00,
2013-04-21 19:19:00,54.7,24.6,30.59,NE,45,0.0,2.6,31,0.00,,,0.00,WUHU216HW,2013-04-21 23:19:00,
2013-04-21 19:24:00,54.4,22.7,30.59,NE,45,0.0,1.8,29,0.00,,,0.00,WUHU216HW,2013-04-21 23:24:00,
2013-04-21 19:29:00,54.0,24.0,30.59,ENE,68,0.0,2.2,31,0.00,,,0.00,WUHU216HW,2013-04-21 23:29:00,
2013-04-21 19:34:00,54.0,24.7,30.59,ESE,113,0.0,2.2,32,0.00,,,0.00,WUHU216HW,2013-04-21 23:34:00,
2013-04-21 19:39:00,52.9,23.8,30.59,West,270,0.0,1.8,32,0.00,,,0.00,WUHU216HW,2013-04-21 23:39:00,
2013-04-21 19:44:00,51.7,22.6,30.59,North,0,0.0,0.8,32,0.00,,,0.00,WUHU216HW,2013-04-21 23:44:00,
2013-04-21 19:49:00,50.8,23.2,30.59,ENE,68,1.4,1.4,34,0.00,,,0.00,WUHU216HW,2013-04-21 23:49:00,
2013-04-21 19:54:00,50.0,22.5,30.59,East,90,0.0,1.4,34,0.00,,,0.00,WUHU216HW,2013-04-21 23:54:00,
2013-04-21 19:59:00,49.3,22.0,30.59,East,90,0.0,0.8,34,0.00,,,0.00,WUHU216HW,2013-04-21 23:59:00,
2013-04-21 20:04:00,48.8,22.9,30.59,East,90,0.0,0.0,36,0.00,,,0.00,WUHU216HW,2013-04-22 00:04:00,
2013-04-21 20:09:00,48.2,22.3,30.59,East,90,0.0,0.0,36,0.00,,,0.00,WUHU216HW,2013-04-22 00:09:00,
2013-04-21 20:14:00,47.9,22.7,30.59,East,90,0.0,0.0,37,0.00,,,0.00,WUHU216HW,2013-04-22 00:14:00,
2013-04-21 20:20:00,47.5,23.0,30.59,East,90,0.0,0.0,38,0.00,,,0.00,WUHU216HW,2013-04-22 00:20:00,
2013-04-21 20:25:00,47.2,22.7,30.59,East,90,0.0,0.0,38,0.00,,,0.00,WUHU216HW,2013-04-22 00:25:00,
2013-04-21 20:30:00,46.8,21.7,30.59,East,90,0.0,0.0,37,0.00,,,0.00,WUHU216HW,2013-04-22 00:30:00,
2013-04-21 20:35:00,46.4,22.1,30.59,East,90,0.0,0.0,38,0.00,,,0.00,WUHU216HW,2013-04-22 00:35:00,
2013-04-21 20:40:00,46.1,22.4,30.59,East,90,0.0,0.0,39,0.00,,,0.00,WUHU216HW,2013-04-22 00:40:00,
2013-04-21 20:45:00,45.5,21.2,30.59,East,90,0.0,0.0,38,0.00,,,0.00,WUHU216HW,2013-04-22 00:45:00,
2013-04-21 20:50:00,45.4,22.4,30.59,East,90,0.0,0.0,40,0.00,,,0.00,WUHU216HW,2013-04-22 00:50:00,
2013-04-21 20:55:00,45.0,21.4,30.59,East,90,0.0,0.0,39,0.00,,,0.00,WUHU216HW,2013-04-22 00:55:00,
2013-04-21 21:00:00,44.5,22.7,30.59,East,90,0.0,0.0,42,0.00,,,0.00,WUHU216HW,2013-04-22 01:00:00,
2013-04-21 21:05:00,44.3,23.0,30.59,East,90,0.0,0.0,43,0.00,,,0.00,WUHU216HW,2013-04-22 01:05:00,
2013-04-21 21:10:00,43.7,23.7,30.59,East,90,0.0,0.0,45,0.00,,,0.00,WUHU216HW,2013-04-22 01:10:00,
2013-04-21 21:15:00,43.4,22.8,30.59,East,90,0.0,0.0,44,0.00,,,0.00,WUHU216HW,2013-04-22 01:15:00,
2013-04-21 21:20:00,43.0,22.0,30.59,East,90,0.0,0.0,43,0.00,,,0.00,WUHU216HW,2013-04-22 01:20:00,
2013-04-21 21:25:00,42.7,22.1,30.59,East,90,0.0,0.0,44,0.00,,,0.00,WUHU216HW,2013-04-22 01:25:00,
2013-04-21 21:31:00,42.5,22.0,30.59,East,90,0.0,0.0,44,0.00,,,0.00,WUHU216HW,2013-04-22 01:31:00,
2013-04-21 21:36:00,42.1,21.6,30.60,East,90,0.0,0.0,44,0.00,,,0.00,WUHU216HW,2013-04-22 01:36:00,
2013-04-21 21:41:00,42.1,21.6,30.60,East,90,0.0,0.0,44,0.00,,,0.00,WUHU216HW,2013-04-22 01:41:00,
2013-04-21 21:46:00,41.8,22.3,30.60,East,90,0.0,0.0,46,0.00,,,0.00,WUHU216HW,2013-04-22 01:46:00,
2013-04-21 21:51:00,41.4,23.0,30.60,East,90,0.0,0.0,48,0.00,,,0.00,WUHU216HW,2013-04-22 01:51:00,
2013-04-21 21:56:00,41.0,22.2,30.60,East,90,0.0,0.0,47,0.00,,,0.00,WUHU216HW,2013-04-22 01:56:00,
2013-04-21 22:01:00,40.9,23.6,30.60,East,90,0.0,0.0,50,0.00,,,0.00,WUHU216HW,2013-04-22 02:01:00,
2013-04-21 22:06:00,40.7,23.0,30.60,East,90,0.0,0.0,49,0.00,,,0.00,WUHU216HW,2013-04-22 02:06:00,
2013-04-21 22:11:00,40.5,23.3,30.60,ESE,113,0.4,0.4,50,0.00,,,0.00,WUHU216HW,2013-04-22 02:11:00,
2013-04-21 22:16:00,40.3,23.1,30.60,ESE,113,0.0,0.4,50,0.00,,,0.00,WUHU216HW,2013-04-22 02:16:00,
2013-04-21 22:21:00,40.3,23.1,30.60,West,270,0.0,0.4,50,0.00,,,0.00,WUHU216HW,2013-04-22 02:21:00,
2013-04-21 22:26:00,40.5,22.8,30.60,West,270,0.0,0.4,49,0.00,,,0.00,WUHU216HW,2013-04-22 02:26:00,
2013-04-21 22:31:00,40.7,23.0,30.60,West,270,0.0,0.0,49,0.00,,,0.00,WUHU216HW,2013-04-22 02:31:00,
2013-04-21 22:36:00,40.7,23.0,30.60,West,270,0.0,0.0,49,0.00,,,0.00,WUHU216HW,2013-04-22 02:36:00,
2013-04-21 22:41:00,41.0,22.7,30.60,West,270,0.0,0.0,48,0.00,,,0.00,WUHU216HW,2013-04-22 02:41:00,
2013-04-21 22:46:00,41.4,22.5,30.60,ESE,113,0.8,0.8,47,0.00,,,0.00,WUHU216HW,2013-04-22 02:46:00,
2013-04-21 22:51:00,41.6,22.7,30.60,ESE,113,0.0,0.8,47,0.00,,,0.00,WUHU216HW,2013-04-22 02:51:00,
2013-04-21 22:56:00,41.6,22.2,30.59,ESE,113,0.0,0.8,46,0.00,,,0.00,WUHU216HW,2013-04-22 02:56:00,
2013-04-21 23:02:00,41.6,22.2,30.60,ESE,113,0.0,0.0,46,0.00,,,0.00,WUHU216HW,2013-04-22 03:02:00,
2013-04-21 23:07:00,41.6,22.2,30.59,ESE,113,0.0,0.0,46,0.00,,,0.00,WUHU216HW,2013-04-22 03:07:00,
2013-04-21 23:12:00,41.4,22.1,30.59,ESE,113,0.0,0.0,46,0.00,,,0.00,WUHU216HW,2013-04-22 03:12:00,
2013-04-21 23:17:00,41.4,22.1,30.60,ESE,113,0.0,0.0,46,0.00,,,0.00,WUHU216HW,2013-04-22 03:17:00,
2013-04-21 23:22:00,41.2,21.9,30.60,East,90,0.0,0.0,46,0.00,,,0.00,WUHU216HW,2013-04-22 03:22:00,
2013-04-21 23:27:00,41.2,21.9,30.60,East,90,0.0,0.0,46,0.00,,,0.00,WUHU216HW,2013-04-22 03:27:00,
2013-04-21 23:32:00,41.0,21.7,30.60,East,90,0.0,0.0,46,0.00,,,0.00,WUHU216HW,2013-04-22 03:32:00,
2013-04-21 23:37:00,40.9,22.1,30.60,East,90,0.0,0.0,47,0.00,,,0.00,WUHU216HW,2013-04-22 03:37:00,
2013-04-21 23:42:00,40.9,22.1,30.59,ESE,113,0.0,0.8,47,0.00,,,0.00,WUHU216HW,2013-04-22 03:42:00,
2013-04-21 23:47:00,40.7,22.4,30.59,ESE,113,0.0,0.8,48,0.00,,,0.00,WUHU216HW,2013-04-22 03:47:00,
2013-04-21 23:52:00,40.7,21.9,30.59,ESE,113,0.0,0.0,47,0.00,,,0.00,WUHU216HW,2013-04-22 03:52:00,
2013-04-21 23:57:00,40.5,21.7,30.59,ESE,113,0.8,0.8,47,0.00,,,0.00,WUHU216HW,2013-04-22 03:57:00,